Regional Weather Roundup
Issued by NWS

Home | Current Version | Previous Version | Graphics & Text | Print | Product List | Glossary On
Versions: 1 2 3 4 5 6 7 8 9 10 11 12 13 14 15 16 17 18 19 20 21 22 23 24 25 26 27 28 29 30 31 32 33 34 35 36 37 38 39 40 41 42 43 44 45 46 47 48 49 50
000
ASUS43 KBIS 160510
RWRND

NORTH DAKOTA REGIONAL WEATHER ROUNDUP
NATIONAL WEATHER SERVICE BISMARCK ND
1200 AM CDT MON OCT 16 2017

NOTE: "FAIR" INDICATES FEW OR NO CLOUDS BELOW 12,000 FEET WITH NO
SIGNIFICANT WEATHER AND/OR OBSTRUCTIONS TO VISIBILITY.


NDZ001>003-009>011-017-160600-
NORTHWEST NORTH DAKOTA

CITY           SKY/WX    TMP DP  RH WIND       PRES   REMARKS
WILLISTON      CLEAR     37  29  72 S3        30.09F
MINOT          PTCLDY    42  31  64 SW10      30.09F
MINOT AFB      PTCLDY    39  29  68 SW5       30.07F
$$

NDZ018>021-031>035-040>046-160600-
SOUTHWEST NORTH DAKOTA

CITY           SKY/WX    TMP DP  RH WIND       PRES   REMARKS
BISMARCK       CLOUDY    34  30  85 CALM      30.19S
DICKINSON      CLEAR     36  27  69 S10       30.13F
GARRISON         N/A     38  34  85 S5        30.13F
HETTINGER ARPT CLEAR     31  24  75 CALM      30.21F
$$

NDZ004>008-012>016-024-026-027-054-160600-
NORTHEAST NORTH DAKOTA

CITY           SKY/WX    TMP DP  RH WIND       PRES   REMARKS
GRAND FORKS    CLEAR     38  32  79 SW7       30.13F
GRND FRKS AFB  CLEAR     33  29  85 W7        30.13F
DEVILS LAKE    CLOUDY    39  34  82 SW8       30.13S
$$

NDZ022-023-025-028>030-036>039-047>053-160600-
SOUTHEAST NORTH DAKOTA

CITY           SKY/WX    TMP DP  RH WIND       PRES   REMARKS
FARGO          CLEAR     36  32  85 SW6       30.17S
JAMESTOWN      CLEAR     37  29  72 SW5       30.16F
$$





USA.gov is the U.S. government's official web portal to all federal, state and local government web resources and services.